Simultaneous Nadir Overpasses (SNOs) Predictions

Prediction of SNOs between AURA and NPP Satellite Orbit:

Table of predicted SNOs for the next 14.0 days since TLE Epoch: 2/22/2019
Index Date (AURA) Time (AURA) Lat,Lon (AURA) SZA (AURA ) Date (NPP) Time (NPP) Lat,Lon (NPP) SZA (NPP ) Distance(km) Time Diff (sec)
1 02/23/2019 19:08:44 -79.49, -30.25 77.47 02/23/2019 19:07:45 -79.48, -30.39 77.40 3.18 59
2 02/23/2019 19:58:01 79.82, 139.78 102.04 02/23/2019 19:58:19 79.82, 139.90 102.00 2.37 18
3 02/26/2019 11:25:11 -79.61, 86.48 78.64 02/26/2019 11:24:35 -79.61, 86.43 78.61 1.20 36
4 02/26/2019 12:14:31 79.82,-104.30 101.03 02/26/2019 12:15:13 79.82,-104.39 101.02 1.97 42
5 03/01/2019 03:41:39 -79.69,-157.06 79.78 03/01/2019 03:41:26 -79.70,-157.01 79.78 1.15 13
6 03/01/2019 04:30:59 79.90, 12.17 99.90 03/01/2019 04:32:04 79.90, 12.19 99.85 0.40 65
7 03/03/2019 19:08:47 79.49, 149.75 99.51 03/03/2019 19:07:41 79.49, 149.64 99.58 2.43 66
8 03/03/2019 19:58:08 -79.73, -40.89 80.87 03/03/2019 19:58:19 -79.72, -41.01 80.85 2.70 11
9 03/06/2019 11:25:13 79.60, -93.59 98.30 03/06/2019 11:24:30 79.61, -93.58 98.33 0.31 43




NCC Satellite Simultaneous Nadir Overpasses (SNOs) Prediction Service
